Showing default

COSMOS 2457 (GLONASS), 36112

Orbit data source: Space-Track

COSMOS 2457 (GLONASS), 36112 is a Commonwealth of Independent States-origin payload satellite in MEO that was launched on Mon, 14 Dec 2009 UTC via a PROTON-M/DM-2 launch vehicle from the Tyuratam Missile And Space Complex (TTMTR). Payload-class satellites include a variety of spacecraft equipped with specific instruments for various scientific and technological missions. These include communications satellites like Starlink; space stations such as the ISS; scientific satellites like the Hubble; Earth observation satellites from companies like Planet Labs, Umbra, and HawkEye 360; GPS; miniature CubeSats for education and research; and military/defense satellites.

Loading next visibility...
Identifier
36112, 2009-070B
Orbit
MEO
Country
Flag of CISCIS
Related business
Manufacturer
Resehetnev ISS
Mission
On reserve Defense Navigation
Bus & Motor
URAGAN, Unknown motor
Mass
1,450 kg wet, ~1,200 kg dry
Launch date (UTC)
2009-12-14 (17 years ago)
Launch vehicle
PROTON-M/DM-2
Launch site
Tyuratam Missile And Space Complex (TTMTR)
Object type
Payload
Rocket body
Debris
Shape & HBR
Cyl + 1 Ant + 2 Pan, 3.9 m
Radar Cross Section
8.467 m², Large (>1 m²)

Expand to show TLE details & history
Last TLE update: 3 days ago

TLE from 3 days ago
0 COSMOS 2457 (GLONASS)
1 36112U 09070B   26170.28409466 -.00000033  00000-0  00000-0 0  9991
2 36112  64.9980  70.7445 0002927 121.9797  70.3947  2.13101026128472
Epoch: 2026-06-19T06:49Z
TLE epoch observation values (Epoch: 2026-06-19T06:49:05.778Z)
Latitude
-11.26502°
Longitude
-113.71494°
Altitude
19,130.265 km
Speed
3.953 km/s
True Right ascension
17h 04m 17s
True Declination
-11° 14' 48"
Sunlit
Object was in daylight at epoch
Visualization orbit readout
Latitude
Unknown
Longitude
Unknown
Altitude
Unknown
Speed
Unknown
Apparent Right ascension
Unknown
Apparent Declination
Unknown
Sunlit
N/A
Visualization observer readout
Local Sidereal Time
23:20:03
Azimuth
Unknown
Elevation
Unknown
Doppler factor
Unknown
Orbital elements
Apogee altitude
19,137.046 km
Perigee altitude
19,122.114 km
Semi-major axis
25,507.717 km
Eccentricity
0.00029
Inclination
64.998°
RAAN
70.7445°
Arg. of periapsis
121.9797°
True anomaly
70.4263°
Mean anomaly
70.3947°
Eccentric anomaly
70.4105°
Mean motion
0.53277 °/min
Orbital period
675.72 mins
BSTAR
0
Loading maneuver chart data...
Computing Atmospheric mass density...
Loading historical data...
Loading historical data...
Loading historical data...
Loading historical data...
Loading historical data...
Loading historical data...
Loading historical data...

Documentation

Showing up to 5 results
|